Weather in La Malbaie

Canada     47°39′30″N   70°09′16″W
temp.,
°C
wind,
m/s
gust,
m/s
humid.,
%
clouds,
%
prec.,
mm/h
press.,
hPa
HPBL,
m
26 may, thu
thu2623:00+11nnw2273100 0.0 102540
02:00+10nnw2275100 0.0 102518
05:00+10nne1177100 0.0 102512
08:00+12se1270100 0.0 1024242
11:00+15se3556100 0.0 1021868
14:00+9se3699100 5.3 1018351
17:00+9sse2599100 8.7 1014273
20:00+9sse24100100 15.4 1011206
27 may, fri
fri2723:00+9s0199100 10.3 100992
02:00+10sw1199100 15.5 100833
05:00+11sse1199100 0.9 100816
08:00+11ese12100100 3.9 100877
11:00+10ese22100100 12.9 1008130
14:00+8ne1399100 26.8 1008173
17:00+7nne2498100 10.9 1009249
20:00+7nne2498100 11.5 1009253
28 may, sat
sat2823:00+6nne2399100 0.1 1008193
02:00+6nne1299100 0.1 1007139
05:00+7nne1299100 0.1 1006108
08:00+8se1199100 0.6 1005121
11:00+10sse1299100 1.1 1004178
14:00+11w1199100 2.8 1003155
17:00+12ne0197100 1.6 100376
20:00+10wnw119889 2.1 100533
29 may, sun
sun2923:00+9nw1296100 0.2 1007129
02:00+8w229499 0.2 100957
05:00+6nw349675 0.0 101172
08:00+11w1380100 0.0 1013425
11:00+19w264557 0.0 10121786
14:00+22wsw373687 0.0 10112710
17:00+18wsw41055100 0.0 1011594
20:00+14wsw2370100 0.0 1013106
30 may, mon
mon3023:00+14wnw3669100 0.0 1013262
02:00+13wnw2275100 0.0 101448
05:00+11nw2387100 0.0 101563
08:00+15wnw256674 0.0 1015855
11:00+19nw47445 0.0 10141760
14:00+19nw68320 0.0 10131813
17:00+18nw58426 0.0 10141916
20:00+11ne2270100 0.0 101785